Hourly Data Report for October 28, 2015

All times are specified in Local Standard Time (LST). Add 1 hour to adjust for Daylight Saving Time where and when it is observed.

POND INLET A
NUNAVUT

72°41'22.000" N
77°58'08.000" W
61.60 m
2403206
71095
YIO

Related Data

No related data is available for this station

Download Data

Hourly Data (October 2015)
Hourly Data Report for October 28, 2015
Temp Definition
°C
Dew Point Temp Definition
°C
Rel Hum Definition
%
Wind Dir Definition
10's deg

Wind Spd Definition
km/h
Visibility Definition
km
Stn Press Definition
kPa
Hmdx Definition


Wind Chill Definition


Weather Definition


TIME
00:00 Legend Double Dagger -11.9 -16.1 71 14 22 16.1 99.89   -21 LegendNANA
01:00 Legend Double Dagger -12.0 -16.3 71 14 24 16.1 99.94   -21 LegendNANA
02:00 Legend Double Dagger -9.6 -14.8 66 14 21 16.1 99.99   -18 LegendNANA
03:00 Legend Double Dagger -9.3 -13.1 74 15 18 16.1 100.02   -17 Snow
04:00 Legend Double Dagger -9.0 -12.7 75 15 21 16.1 100.04   -17 Snow
05:00 Legend Double Dagger -8.3 -11.5 78 17 24 16.1 100.04   -16 Snow
06:00 Legend Double Dagger -6.7 -8.2 89 24 32 16.1 100.05   -15 Snow
07:00 Legend Double Dagger -7.0 -9.4 83 27 24 16.1 100.08   -15 LegendNANA
08:00 Legend Double Dagger -7.3 -9.4 85 26 24 16.1 100.11   -15 Snow
09:00 Legend Double Dagger -7.4 -9.5 85 26 24 16.1 100.09   -15 Snow
10:00 Legend Double Dagger -7.6 -9.3 88 28 17 16.1 100.08   -14 Snow
11:00 Legend Double Dagger -7.4 -9.7 84 27 22 16.1 100.07   -15 Snow
12:00 Legend Double Dagger -7.5 -9.7 85 27 26 16.1 100.08   -16 Snow
13:00 Legend Double Dagger -7.7 -9.7 86 27 22 16.1 100.10   -15 Snow
14:00 Legend Double Dagger -7.8 -10.4 82 27 24 16.1 100.13   -16 Snow
15:00 Legend Double Dagger -7.8 -9.9 85 26 22 16.1 100.14   -15 Snow
16:00 Legend Double Dagger -7.8 -10.3 82 27 26 16.1 100.14   -16 Snow
17:00 Legend Double Dagger -7.8 -9.9 85 26 28 16.1 100.15   -16 Snow
18:00 Legend Double Dagger -8.0 -10.0 85 27 24 16.1 100.17   -16 LegendNANA
19:00 Legend Double Dagger -8.2 -10.1 86 26 21 16.1 100.17   -16 LegendNANA
20:00 Legend Double Dagger -8.3 -10.5 85 27 21 16.1 100.17   -16 Snow
21:00 Legend Double Dagger -8.5 -11.2 81 25 21 16.1 100.16   -16 Snow
22:00 Legend Double Dagger -8.6 -11.6 79 27 18 16.1 100.15   -16 Snow
23:00 Legend Double Dagger -8.7 -11.8 79 25 18 16.1 100.14   -16 LegendNANA

Notes on Data Quality.

Legend

  • E = Estimated
  • M = Missing
  • NA = Not Available
  • ‡ = Partner data that is not subject to review by the National Climate Archives
Date modified: